Overview Statistics Trail Chart Weather Telemetry Raw packets
 

This is the latest recevied weather packets stored in our database for station/object 9A7DI-13. If no packets are shown the sender has not sent any weather packets the latest 10 day(s).

<< 15 16 17 18 19 20 21 >>
Time Temp. Humidity Pressure Rain* Wind** Luminosity Snow
1788427003 28.89° C 35% 1028.8 hPa - - - -
1788426403 29.44° C 34% 1028.9 hPa - - - -
1788425803 28.89° C 35% 1028.9 hPa - - - -
1788425203 28.89° C 35% 1029 hPa - - - -
1788424603 28.33° C 37% 1028.9 hPa - - - -
1788424003 27.22° C 39% 1028.9 hPa - - - -
1788423403 27.22° C 37% 1028.9 hPa - - - -
1788422803 26.67° C 43% 1028.9 hPa - - - -
1788422203 26.11° C 43% 1028.9 hPa - - - -
1788421603 25° C 46% 1028.9 hPa - - - -
1788421003 25° C 48% 1028.9 hPa - - - -
1788420403 24.44° C 49% 1029 hPa - - - -
1788419803 23.89° C 51% 1029 hPa - - - -
1788419203 23.33° C 52% 1029 hPa - - - -
1788418603 23.33° C 55% 1029.2 hPa - - - -
1788418003 21.67° C 59% 1029.3 hPa - - - -
1788417404 21.11° C 63% 1029.3 hPa - - - -
1788416804 20.56° C 65% 1029.5 hPa - - - -
1788416204 20° C 66% 1029.4 hPa - - - -
1788415603 18.89° C 70% 1029.4 hPa - - - -
1788415004 18.33° C 73% 1029.3 hPa - - - -
1788414404 17.22° C 79% 1029.3 hPa - - - -
1788413804 16.67° C 82% 1029.2 hPa - - - -
1788413204 15.56° C 85% 1029.1 hPa - - - -
1788412604 15° C 88% 1029 hPa - - - -

* Rain since midnight (hover to see other rain measurements)
** Current wind speed in m/s (hover to see current wind gust speed)